Location: Bonningues
(50.7927°N, 2.0150°E)
Time: 06:28:09
(UTC+00:00)

USA 234 - Pass Details

Date: 08 August 2020
Orbit: 1101 x 1107 km, 123.0° (Epoch: 22 September)

Event Time Altitude Azimuth Distance (km) Brightness Sun altitude
Exits shadow 20:18:43 - 116° (ESE) 3,051 4.9 -8.1°
Reaches altitude 10° 20:18:58 10° 116° (ESE) 2,956 4.9 -8.1°
Maximum altitude 20:25:30 87° 31° (NNE) 1,110 3.3 -8.9°
Drops below altitude 10° 20:32:05 10° 301° (WNW) 2,968 7.1 -9.7°
Sets 20:34:34 0° 301° (WNW) 3,929 8.2 -10.0°
